User: anonymous   Login
Location: downtown San Diego
(32.7310°N, 117.1990°W)
Time: 09:48:30
(UTC-07:00)
Language:

Cosmos 304 Rocket - Orbit

View from above orbital plane
View from above orbital plane
View from above satellite
View from above satellite

Ground track
Ground track

The orbit data is extracted from the following two-line orbital elements,

1  4139U 69091B   19291.50393012  .00000080  00000-0  21553-4 0  9995
2  4139  74.0308 268.6704 0004856 153.5626 206.5790 14.62942350653958
Epoch (UTC): 18 October 2019 12:05:39
Eccentricity: 0.0004856
inclination: 74.0308°
perigee height: 680 km
apogee height: 687 km
right ascension of ascending node: 268.6704°
argument of perigee: 153.5626°
revolutions per day: 14.62942350
mean anomaly at epoch: 206.5790°
orbit number at epoch: 65395

The dashed part of the orbit path shows where the satellite is in the earth's shadow,  

DLR